User: anonymous   Login
Location: Unspecified
(0.0000°N, 0.0000°E)
Time: 06:47:23
(UTC+00:00)
Language:

Sedsat-1 - Orbit

View from above orbital plane
View from above orbital plane
View from above satellite
View from above satellite

Ground track
Ground track

The orbit data is extracted from the following two-line orbital elements,

1 25509U 98061B   17087.43682181 +.00000183 +00000-0 +25108-4 0  9993
2 25509 031.4314 163.5146 0346923 015.9538 345.1710 14.30268387962575
Epoch (UTC): 28 March 2017 10:29:01
Eccentricity: 0.0346923
inclination: 31.4314°
perigee height: 542 km
apogee height: 1039 km
right ascension of ascending node: 163.5146°
argument of perigee: 15.9538°
revolutions per day: 14.30268387
mean anomaly at epoch: 345.1710°
orbit number at epoch: 96257

The dashed part of the orbit path shows where the satellite is in the earth's shadow,  

DLR